• Join FlightAware (Why Join?)
  • Login
  • US Flag 
02:39AM EST


 

Airport Tracker/Info


-or-


 

Live Flight TrackerFlight Track Log ✈ SWA3829 ✈ 28-Jun-2013 ✈ KAUS - KDAL

Flight Track Log - Related Links

Times and Time Zones

All times are in EDT time to prevent confusion due to time zone crossing. See the SWA3829 flight status page for this flight to view local times or setup timezone preferences in your user account.

Time Position Orientation Groundspeed Altitude Reporting Facility
EDT Latitude Longitude Course Direction KTS MPH feet Rate Location/Type
07:29AM 30.0803 -97.5864 47° Northeast 244 281 6,200  Level Houston Center
07:30AM 30.1336 -97.5333 41° Northeast 252 290 8,900 2,902 Climbing Houston Center
07:31AM 30.2050 -97.4961 24° Northeast 275 316 12,100 2,607 Climbing Houston Center
07:32AM 30.5187 -97.3433 47° Northeast  Level FlightAware Approximate
07:32AM 30.2825 -97.4553 24° Northeast 299 344 14,200  Level Houston Center
07:33AM 30.5805 -97.2695 41° Northeast  Level FlightAware Approximate
07:33AM 30.3725 -97.4064 25° Northeast 345 397 16,600  Level Houston Center
07:34AM 30.6386 -97.1934 47° Northeast  Level FlightAware Approximate
07:34AM 30.4675 -97.3547 25° Northeast 375 432 18,400  Level Houston Center
07:35AM 30.5658 -97.2994 26° Northeast 389 448 21,100 1,770 Climbing Houston Center
07:36AM 30.6475 -97.2100 43° Northeast 403 464 22,000 443 Climbing Houston Center
07:37AM 30.7381 -97.1000 46° Northeast 405 466 22,000  Level Houston Center
07:38AM 30.8150 -97.0067 46° Northeast 401 461 22,000  Level Houston Center
07:39AM 30.8914 -96.9161 45° Northeast 392 451 22,000  Level Houston Center
07:40AM 30.9672 -96.8253 46° Northeast 392 451 22,000  Level Houston Center
07:41AM 31.0536 -96.7511 36° Northeast 407 468 22,000  Level Houston Center
07:42AM 31.1597 -96.7217 13° North 392 451 22,000  Level Houston Center
07:43AM 31.2661 -96.6939 13° North 389 448 22,000  Level Houston Center
07:44AM 31.3747 -96.6644 13° North 395 455 22,000  Level Houston Center
07:45AM 31.4819 -96.6350 13° North 394 453 22,000  Level Houston Center
07:46AM 31.5894 -96.6067 13° North 393 452 22,000  Level Houston Center
07:47AM 31.6978 -96.5761 13° North 395 455 22,000 -148 Level Houston Center
07:48AM 31.8047 -96.5461 13° North 393 452 21,700 -1,068 Descending Houston Center
07:49AM 31.9053 -96.5200 12° North 387 445 19,900 -2,154 Descending Fort Worth Center
07:50AM 32.0094 -96.4922 13° North 387 445 17,500 -2,350 Descending Fort Worth Center
07:51AM 32.1075 -96.4642 14° North 376 433 15,200 -2,300 Descending Fort Worth Center
07:52AM 32.2011 -96.4386 13° North 360 414 12,900 -2,100 Descending Fort Worth Center
07:53AM 32.3014 -96.4206 North 331 381 11,000 -1,350 Descending Fort Worth Center
07:54AM 32.3808 -96.4417 347° North 319 367 10,200 -800 Descending Fort Worth Center
07:55AM 32.4728 -96.4603 350° North 311 358 9,400 -950 Descending Fort Worth Center
07:56AM 32.5439 -96.4769 349° North 288 331 8,300 -1,100 Descending Fort Worth Center
07:57AM 32.6297 -96.4983 348° North 283 326 7,200 -1,000 Descending Fort Worth Center
07:58AM 32.6925 -96.5247 341° North 278 320 6,300 -1,000 Descending Fort Worth Center
07:59AM 32.7514 -96.5958 315° West 267 307 5,200 -743 Descending Fort Worth Center
08:00AM 32.8000 -96.6333 327° Northwest 259 298 5,000 -114 Descending Dallas / Fort Worth TRACON
08:01AM 32.8333 -96.6833 308° West 225 259 5,000  Level Dallas / Fort Worth TRACON
08:02AM 32.9000 -96.7333 328° Northwest 227 261 5,000 -286 Level Dallas / Fort Worth TRACON
08:03AM 32.9500 -96.7667 331° Northwest 200 230 4,400 -550 Descending Dallas / Fort Worth TRACON
08:04AM 32.9833 -96.8167 308° West 186 214 3,900 -778 Descending Dallas / Fort Worth TRACON
08:04AM 33.0000 -96.8667 292° West 190 219 3,000 -632 Descending Dallas / Fort Worth TRACON
08:06AM 32.9667 -96.9167 232° Southwest 187 215 2,700 -571 Descending Dallas / Fort Worth TRACON
08:07AM 32.9167 -96.9000 164° South 173 199 1,800 -800 Descending Dallas / Fort Worth TRACON
08:08AM 32.8833 -96.8833 157° South 132 152 1,100 -700 Descending Dallas / Fort Worth TRACON
08:10AM 32.8471 -96.8518 157° South  Level Estimated
08:17AM 32.8471 -96.8518 157° South  Level Estimated